Regional Weather Roundup
Issued by NWS

Home | Current Version | Previous Version | Text Only | Print | Product List | Glossary On
Versions: 1 2 3 4 5 6 7 8 9 10 11 12 13 14 15 16 17 18 19 20 21 22 23 24 25 26 27 28 29 30 31 32 33 34 35 36 37 38 39 40 41 42 43 44 45 46 47 48 49 50
000
ASUS43 KDTX 030210
RWRMI
MICHIGAN HOURLY REGIONAL WEATHER ROUNDUP
NATIONAL WEATHER SERVICE DETROIT/PONTIAC MI
1000 PM EDT SUN AUG 02 2015

NOTE: "FAIR" INDICATES FEW OR NO CLOUDS BELOW 12,000 FEET WITH NO
SIGNIFICANT WEATHER AND/OR OBSTRUCTION TO VISIBILITY.

MIZ047>049-052>055-059>063-066>070-074>076-081>083-030300-
SOUTHEAST LOWER MICHIGAN

CITY           SKY/WX    TMP DP  RH WIND       PRES   REMARKS
ADRIAN         PTCLDY    80  64  58 SW20      29.71F
ALMA           RAIN      62  61  95 S12       29.67F
ANN ARBOR      MOCLDY    82  64  54 SW15G21   29.68S
BAD AXE        HVY RAIN  62  60  94 SE5       29.68F
DETROIT CITY   CLOUDY    84  61  45 N16G23    29.71R
DETROIT        MOCLDY    83  63  50 S24G31    29.68S
FLINT          TSTM      64  58  80 NW17G30   29.78R VSB 1
GROSSE ILE     MOCLDY    82  66  57 S15G22    29.68S
HILLSDALE      PTCLDY    81  66  60 SW14G21   29.72R
HOWELL         MOCLDY    72  58  60 N9G17     29.71R

CITY           SKY/WX    TMP DP  RH WIND       PRES   REMARKS
JACKSON        MOCLDY    81  66  60 SW20G29   29.68R
LAMBERTVILLE   PTCLDY    82  64  54 SW9G24    29.73R
LANSING        LGT RAIN  69  58  67 NE16G31   29.78R
LAPEER         NOT AVBL
MASON          MOCLDY    80  63  55 SW13G24   29.67R
MONROE         PTCLDY    82  65  57 SW14G23   29.69S
MT. CLEMENS    CLOUDY    68  59  73 NE12G25   29.72R
PONTIAC        CLOUDY    67  59  75 NE14G22   29.72R
PORT HURON     HVY RAIN  63  61  94 E8        29.75R
TRI CITIES     TSTM      64  61  90 S14       29.68F
YPSILANTI      MOCLDY    85  64  49 SW20G28   29.68S
$$
MIZ043>046-050>051-056>058-064>065-071>073-077>080-030300-
SOUTHWEST LOWER MICHIGAN

CITY           SKY/WX    TMP DP  RH WIND       PRES   REMARKS
BATTLE CREEK   CLOUDY    83  65  54 SW18G28   29.67R
BENTON HARBOR  CLOUDY    84  69  60 SW20G29   29.65F
BIG RAPIDS     CLOUDY    64  63  96 W6        29.61S
COLDWATER      PTCLDY    80  63  56 SW14      29.71R
HOLLAND        TSTM      66  64  93 W9        29.69R FOG
GRAND RAPIDS   TSTM      65  64  97 S23       29.63F FOG
KALAMAZOO      CLOUDY    83  65  54 SW17G28   29.65F
MARSHALL       MOCLDY    82  64  56 SW14G21   29.68R
MUSKEGON       CLOUDY    67  64  90 S8        29.62F THUNDER
$$
MIZ016>042-030300-
NORTHERN LOWER MICHIGAN

CITY           SKY/WX    TMP DP  RH WIND       PRES   REMARKS
ALPENA         CLOUDY    63  61  93 W5        29.58R
BEAVER ISLAND  CLOUDY    64  62  94 W6        29.62R
BELLAIRE       CLOUDY    61  59  94 CALM      29.62R
CADILLAC       CLOUDY    61  60  96 SW5       29.64R
CHARLEVOIX     CLOUDY    63  61  95 W5        29.64R
FRANKFORT      CLOUDY    61  60  97 CALM      29.65R
GAYLORD        CLOUDY    61  61 100 W5        29.62
GRAYLING       CLOUDY    60  58  96 W3        29.63R
HARBOR SPRINGS CLOUDY    63  62  96 W5        29.61R
HOUGHTON LAKE  CLOUDY    61  59  93 CALM      29.61F
MANISTEE       CLOUDY    61  55  82 CALM      29.63S
OSCODA         LGT RAIN  63  62  96 S7        29.58R
PELLSTON       CLOUDY    63  62  97 SW3       29.61R
TRAVERSE CITY  CLOUDY    61  59  93 CALM      29.63R
$$
MIZ007>008-015-030300-
EASTERN UPPER MICHIGAN

CITY           SKY/WX    TMP DP  RH WIND       PRES   REMARKS
KINROSS        CLOUDY    64  61  88 NW6       29.60R
MACKINAC ISLAN   N/A     65  64  99 W3        29.59R
NEWBERRY       MOCLDY    61  59  93 NW5       29.61R
S. S. MARIE    CLOUDY    64  60  87 W6        29.58R
$$
MIZ004>006-011>014-085-030300-
CENTRAL UPPER MICHIGAN

CITY           SKY/WX    TMP DP  RH WIND       PRES   REMARKS
MANISTIQUE     MOCLDY    59  57  94 NW3       29.62R
ESCANABA       MOCLDY    63  61  94 W5        29.64R
MENOMINEE      PTCLDY    63  57  82 CALM      29.65R
SAWYER-GWINN   CLEAR     64  57  77 W3        29.65R
$$
MIZ001>003-009>011-084-030300-
WESTERN UPPER MICHIGAN

CITY           SKY/WX    TMP DP  RH WIND       PRES   REMARKS
IRON MOUNTAIN  CLOUDY    64  57  78 CALM      29.66R
HOUGHTON       MOCLDY    62  53  72 NW8       29.64R
COPPER HARBOR    N/A     67  49  52 N7        29.61R
IRONWOOD       MOCLDY    64  54  68 W8        29.68R
$$

ABBREVIATIONS USED IN REMARKS
   TC - TEMPERATURE IN CELSIUS
  WCI - WIND CHILL INDEX
   HX - HEAT INDEX
  VSB - VISIBILITY



USA.gov is the U.S. government's official web portal to all federal, state and local government web resources and services.